Location: Petruro
(41.0333°N, 14.7833°E)
Time: 14:08:36
(UTC+00:00)

Cosmos 2151 - Pass Details

Date: 20 June 2021
Orbit: 582 x 600 km, 82.5° (Epoch: 29 July)

Event Time Altitude Azimuth Distance (km) Brightness Sun altitude
Exits shadow 01:44:54 23° 248° (WSW) 1,246 4.1 -15.3°
Maximum altitude 01:46:24 30° 284° (WNW) 1,070 4.0 -15.1°
Drops below altitude 10° 01:50:07 10° 346° (NNW) 1,911 6.1 -14.7°
Sets 01:52:33 0° 358° (N) 2,814 7.2 -14.4°
